Stations météo

réclame
Mon MeteoGroup
F16-A, Pays-Bas (6206): Température de l'air & dewpoint: 09.12.2019 23:00:00 - 15.12.2019 23:00:00 (CET)F16-A, Pays-Bas (6206): Vitesse du vent & gusts: 09.12.2019 23:00:00 - 15.12.2019 23:00:00 (CET)F16-A, Pays-Bas (6206): Direction du vent: 09.12.2019 23:00:00 - 15.12.2019 23:00:00 (CET)F16-A, Pays-Bas (6206): reduced air pressure: 09.12.2019 23:00:00 - 15.12.2019 23:00:00 (CET)F16-A, Pays-Bas (6206): visibility: 09.12.2019 23:00:00 - 15.12.2019 23:00:00 (CET)
Date & Time tt [°C] td [°C] ff [km/h] ff [knt] fx [km/h] fx [knt] dd ppp [hPa] vv [km]
15.12.2019 23:00:00 9,0 5,0 52 28 - - S 999,1 10
15.12.2019 22:00:00 8,8 4,5 52 28 54 29 SW 998,5 10
15.12.2019 21:00:00 8,3 3,9 46 25 47 25 SW 998,0 10
15.12.2019 20:00:00 8,2 4,0 44 24 50 27 SW 997,3 10
15.12.2019 19:00:00 7,9 1,9 46 25 47 25 SW 996,5 10
15.12.2019 18:00:00 7,6 2,8 42 23 47 25 WSW 996,0 10
15.12.2019 17:00:00 7,5 2,0 44 24 50 27 WSW 995,0 10
15.12.2019 16:00:00 7,4 1,6 46 25 50 27 WSW 993,8 10
15.12.2019 15:00:00 7,5 0,9 52 28 54 29 WSW 992,7 10
15.12.2019 14:00:00 7,6 2,4 54 29 61 33 WSW 991,8 10
15.12.2019 13:00:00 7,3 1,5 52 28 68 37 WSW 990,3 10
15.12.2019 12:00:00 7,5 1,2 68 37 76 41 WSW 988,5 10
15.12.2019 11:00:00 6,9 2,5 76 41 83 45 WSW 986,6 10
15.12.2019 10:00:00 6,4 2,2 80 43 90 49 WSW 984,2 10
15.12.2019 09:00:00 7,2 1,7 78 42 79 43 WSW 983,0 10
15.12.2019 08:00:00 7,4 2,2 76 41 79 43 SW 981,8 10
15.12.2019 07:00:00 8,2 3,4 67 36 68 37 SW 980,7 10
15.12.2019 06:00:00 7,2 4,4 59 32 68 37 WSW 980,7 6
15.12.2019 05:00:00 8,4 6,0 59 32 76 41 - 981,1 6
15.12.2019 04:00:00 8,1 7,6 78 42 83 45 S 981,4 3,8
15.12.2019 03:00:00 7,7 6,3 57 31 72 39 S 983,8 7
15.12.2019 02:00:00 6,3 3,5 35 19 58 31 - 986,0 7
15.12.2019 01:00:00 8,2 2,7 44 24 58 31 SSW 987,8 10
15.12.2019 00:00:00 7,8 2,6 50 27 50 27 SW 989,4 10
14.12.2019 23:00:00 7,5 1,5 50 27 58 31 SW 989,2 10
14.12.2019 22:00:00 7,5 0,6 55 30 54 29 WSW 988,8 10
14.12.2019 21:00:00 7,4 0,7 54 29 58 31 WSW 988,6 10
14.12.2019 20:00:00 7,5 1,7 63 34 65 35 WSW 987,6 10
14.12.2019 19:00:00 7,3 1,7 59 32 61 33 W 986,4 10
14.12.2019 18:00:00 7,5 1,8 61 33 65 35 W 985,5 10
14.12.2019 17:00:00 7,5 2,1 55 30 58 31 WSW 984,7 10
14.12.2019 16:00:00 7,5 3,2 55 30 65 35 W 983,8 10
14.12.2019 15:00:00 7,7 1,4 61 33 65 35 WSW 982,7 10
14.12.2019 14:00:00 7,5 2,6 61 33 61 33 WSW 982,0 10
14.12.2019 13:00:00 7,5 2,2 61 33 58 31 W 981,1 10
14.12.2019 12:00:00 7,4 2,6 57 31 68 37 WSW 980,5 10
14.12.2019 11:00:00 7,0 2,6 57 31 65 35 W 979,6 10
14.12.2019 10:00:00 7,5 2,4 59 32 61 33 WSW 978,8 10
14.12.2019 09:00:00 7,6 2,0 63 34 65 35 WSW 977,2 10
14.12.2019 08:00:00 7,0 3,0 57 31 61 33 WSW 976,7 10
14.12.2019 07:00:00 7,4 3,2 54 29 58 31 WSW 976,0 10
14.12.2019 06:00:00 7,7 3,0 54 29 54 29 WSW 975,6 10
14.12.2019 05:00:00 7,0 3,5 39 21 50 27 WSW 975,3 9
14.12.2019 04:00:00 6,9 4,6 35 19 43 23 WSW 975,5 10
14.12.2019 03:00:00 6,9 4,0 42 23 47 25 WSW 975,5 4,6
14.12.2019 02:00:00 7,1 3,8 42 23 43 23 SW 975,9 10
14.12.2019 01:00:00 8,1 5,2 35 19 47 25 WSW 976,0 10
14.12.2019 00:00:00 7,9 5,1 39 21 43 23 WSW 976,1 10
13.12.2019 23:00:00 8,0 5,1 37 20 40 21 SW 976,5 10
13.12.2019 22:00:00 8,0 4,7 35 19 36 19 SW 976,7 10
13.12.2019 21:00:00 7,0 4,9 29 16 40 21 WSW 977,3 10
13.12.2019 20:00:00 8,2 5,2 29 16 36 19 SW 977,5 36
13.12.2019 19:00:00 8,3 4,7 29 16 32 18 WSW 977,8 10
13.12.2019 18:00:00 8,1 4,5 26 14 29 16 SW 977,7 10
13.12.2019 17:00:00 8,3 4,2 26 14 29 16 WSW 977,6 10
13.12.2019 16:00:00 8,3 4,7 22 12 25 14 WSW 977,0 10
13.12.2019 15:00:00 8,5 4,8 18 10 32 18 WSW 976,3 10
13.12.2019 14:00:00 7,5 6,4 34 18 36 19 S 975,8 10
13.12.2019 13:00:00 7,1 5,8 35 19 36 19 S 975,5 10
13.12.2019 12:00:00 6,7 5,5 39 21 40 21 S 975,0 10
13.12.2019 11:00:00 6,7 5,7 41 22 40 21 SSE 974,4 10
13.12.2019 10:00:00 6,9 5,8 44 24 43 23 S 973,6 10
13.12.2019 09:00:00 7,4 6,4 46 25 50 27 S 972,8 10
13.12.2019 08:00:00 7,4 6,6 42 23 50 27 SSE 971,8 6
13.12.2019 07:00:00 8,6 6,8 28 15 36 19 S 971,4 10
13.12.2019 06:00:00 8,5 6,7 34 18 50 27 SSW 970,7 10
13.12.2019 05:00:00 7,5 7,2 80 43 83 45 SSE 969,9 2,8
13.12.2019 04:00:00 6,2 5,9 81 44 86 47 SSE 969,5 6
13.12.2019 03:00:00 5,1 4,8 81 44 83 45 SSE 970,8 6
13.12.2019 02:00:00 5,5 4,7 65 35 83 45 SSE 972,2 8
13.12.2019 01:00:00 6,1 5,2 76 41 79 43 SSE 974,1 6
13.12.2019 00:00:00 6,5 4,4 78 42 83 45 SSE 975,7 10
12.12.2019 23:00:00 6,8 4,9 74 40 83 45 SSE 977,4 10
12.12.2019 22:00:00 6,3 5,5 83 45 86 47 S 979,1 9
12.12.2019 21:00:00 6,6 4,8 80 43 79 43 SSE 980,9 10
12.12.2019 20:00:00 5,9 5,1 74 40 76 41 SSE 982,5 6
12.12.2019 19:00:00 6,6 3,7 68 37 72 39 SSE 984,0 10
12.12.2019 18:00:00 7,2 3,3 70 38 68 37 SSE 985,7 10
12.12.2019 17:00:00 7,6 2,9 67 36 68 37 S 987,4 10
12.12.2019 16:00:00 7,8 3,7 65 35 68 37 S 988,9 10
12.12.2019 15:00:00 7,7 1,4 52 28 54 29 S 990,3 10
12.12.2019 14:00:00 7,5 0,4 50 27 54 29 S 991,8 10
12.12.2019 13:00:00 7,1 1,0 52 28 50 27 SSW 993,4 10
12.12.2019 12:00:00 6,8 0,3 44 24 50 27 - 994,6 10
12.12.2019 11:00:00 6,6 0,1 41 22 40 21 - 995,6 10
12.12.2019 10:00:00 6,7 1,7 34 18 36 19 SW 996,1 10
12.12.2019 09:00:00 6,9 2,0 31 17 32 18 SW 996,4 10
12.12.2019 08:00:00 6,9 1,2 31 17 32 18 SW 996,5 10
12.12.2019 07:00:00 7,0 0,9 29 16 32 18 WSW 996,8 10
12.12.2019 06:00:00 7,1 1,8 22 12 36 19 WSW 996,8 10
12.12.2019 05:00:00 7,3 2,2 29 16 29 16 W 997,1 10
12.12.2019 04:00:00 6,3 2,8 29 16 32 18 WSW 997,5 10
12.12.2019 03:00:00 7,0 2,9 22 12 22 12 W 997,6 10
12.12.2019 02:00:00 7,0 3,8 21 11 22 12 WSW 997,7 10
12.12.2019 01:00:00 6,9 4,1 21 11 29 16 W 998,0 10
12.12.2019 00:00:00 8,2 2,8 22 12 25 14 SW 998,6 10
11.12.2019 23:00:00 8,2 3,9 28 15 29 16 SW 998,8 10
11.12.2019 22:00:00 8,3 3,4 24 13 32 18 SW 999,2 10
11.12.2019 21:00:00 8,3 3,8 37 20 40 21 SSW 999,6 10
11.12.2019 20:00:00 8,6 3,5 41 22 43 23 - 1000,0 10
11.12.2019 19:00:00 8,4 4,2 41 22 43 23 - 1000,5 10
11.12.2019 18:00:00 8,2 3,6 42 23 43 23 SSW 1000,6 10
11.12.2019 17:00:00 8,0 3,6 39 21 40 21 - 1000,8 10
11.12.2019 16:00:00 8,0 2,6 39 21 40 21 - 1001,1 10
11.12.2019 15:00:00 7,8 3,5 37 20 40 21 - 1001,4 10
11.12.2019 14:00:00 7,9 3,0 44 24 43 23 SSW 1002,0 10
11.12.2019 13:00:00 7,6 3,9 37 20 40 21 SSW 1002,9 10
11.12.2019 12:00:00 7,6 4,0 34 18 32 18 SW 1003,4 10
11.12.2019 11:00:00 8,0 4,0 35 19 32 18 SW 1003,9 10
11.12.2019 10:00:00 8,1 3,7 29 16 29 16 SW 1004,1 10
11.12.2019 09:00:00 8,3 3,4 31 17 32 18 WSW 1004,0 10
11.12.2019 08:00:00 8,2 3,7 37 20 40 21 WSW 1003,8 10
11.12.2019 07:00:00 8,4 4,0 39 21 40 21 WSW 1003,7 10
11.12.2019 06:00:00 8,3 3,7 41 22 43 23 WSW 1003,5 10
11.12.2019 05:00:00 8,6 3,9 42 23 43 23 WSW 1003,2 10
11.12.2019 04:00:00 8,9 3,8 44 24 47 25 WSW 1003,0 10
11.12.2019 03:00:00 9,0 3,2 48 26 50 27 WSW 1002,4 10
11.12.2019 02:00:00 9,3 5,5 42 23 47 25 WSW 1001,4 10
11.12.2019 01:00:00 9,3 6,9 46 25 50 27 WSW 1001,0 10
11.12.2019 00:00:00 9,2 7,0 52 28 94 51 WSW 1000,2 6
10.12.2019 23:00:00 9,8 8,7 96 52 101 54 SSW 998,9 7
10.12.2019 22:00:00 10,0 8,3 98 53 104 56 SSW 999,6 6
10.12.2019 21:00:00 9,6 7,5 98 53 108 58 SSW 1000,5 7
10.12.2019 20:00:00 9,4 7,0 98 53 104 56 SSW 1001,3 8
10.12.2019 19:00:00 9,3 7,0 102 55 104 56 S 1002,6 9
10.12.2019 18:00:00 8,8 7,3 98 53 101 54 S 1003,7 8
10.12.2019 17:00:00 8,1 7,6 89 48 97 53 S 1005,5 5
10.12.2019 16:00:00 8,0 6,0 89 48 90 49 S 1007,0 7
10.12.2019 15:00:00 9,1 6,0 85 46 86 47 S 1009,3 10
10.12.2019 14:00:00 9,2 5,8 78 42 79 43 S 1011,2 10
10.12.2019 13:00:00 9,2 4,7 72 39 76 41 SSW 1013,0 10
10.12.2019 12:00:00 8,6 3,7 72 39 76 41 SSW 1015,1 10
10.12.2019 11:00:00 8,3 3,4 70 38 72 39 SSW 1016,6 10
10.12.2019 10:00:00 7,8 2,8 61 33 61 33 SSW 1017,7 10
10.12.2019 09:00:00 7,3 1,8 54 29 58 31 SSW 1018,5 10
10.12.2019 08:00:00 7,5 1,8 41 22 43 23 - 1019,0 10
10.12.2019 07:00:00 7,6 2,0 31 17 32 18 SW 1019,5 10
10.12.2019 06:00:00 7,8 1,5 18 10 22 12 WSW 1020,0 10
10.12.2019 05:00:00 7,8 0,6 18 10 25 14 W 1020,2 10
10.12.2019 04:00:00 7,5 1,0 13 7 18 10 W 1020,5 10
10.12.2019 03:00:00 7,7 0,0 26 14 32 18 WNW 1020,5 10
10.12.2019 02:00:00 7,5 0,3 31 17 40 21 NW 1019,9 10
10.12.2019 01:00:00 7,7 -2,2 35 19 47 25 NW 1019,5 10
10.12.2019 00:00:00 7,8 0,4 39 21 58 31 NW 1018,3 10
09.12.2019 23:00:00 7,7 -4,4 52 28 61 33 NW 1017,5 10

tt = Température de l'air
td = dewpoint
ff = Vitesse du vent
fx = gusts
dd = Direction du vent
ppp = reduced air pressure
vv = visibility

stations d'obs. à proximité